This is the latest recevied weather packets stored in our database for station/object CQ0XVC-11. If no packets are shown the sender has not sent any weather packets the latest 1 day(s).
| Time | Temp. | Humidity | Pressure | Rain* | Wind** | Luminosity | Snow |
|---|---|---|---|---|---|---|---|
| 1777980979 | 16.11° C | 36% | 1004 hPa | 0 mm | 1.34 m/s, 90° | - | - |
| 1777980676 | 16.11° C | 37% | 1004.1 hPa | 0 mm | 3.58 m/s, 67° | - | - |
| 1777980419 | 16.11° C | 37% | 1004 hPa | 0 mm | 2.68 m/s, 67° | - | - |
| 1777980375 | 16.11° C | 37% | 1004 hPa | 0 mm | 2.68 m/s, 67° | - | - |
| 1777980072 | 16.11° C | 40% | 1004.1 hPa | 0 mm | 2.68 m/s, 90° | - | - |
| 1777979770 | 16.11° C | 39% | 1004.2 hPa | 0 mm | 2.24 m/s, 315° | - | - |
| 1777979468 | 15.56° C | 41% | 1004.3 hPa | 0 mm | 3.13 m/s, 315° | - | - |
| 1777979166 | 15.56° C | 41% | 1004.3 hPa | 0 mm | 1.79 m/s, 303° | - | - |
| 1777978863 | 15.56° C | 41% | 1004.3 hPa | 0 mm | 1.79 m/s, 67° | - | - |
| 1777978603 | 15.56° C | 40% | 1004.4 hPa | 0 mm | 1.79 m/s, 292° | - | - |
| 1777978562 | 15.56° C | 40% | 1004.4 hPa | 0 mm | 1.79 m/s, 292° | - | - |
| 1777978298 | 15.56° C | 39% | 1004.3 hPa | 0 mm | 0.45 m/s, 180° | - | - |
| 1777978259 | 15.56° C | 39% | 1004.3 hPa | 0 mm | 0.45 m/s, 180° | - | - |
| 1777977957 | 15.56° C | 39% | 1004.2 hPa | 0 mm | 1.79 m/s, 0° | - | - |
| 1777977655 | 15.56° C | 40% | 1004.1 hPa | 0 mm | 0.45 m/s, 22° | - | - |
| 1777977353 | 15.56° C | 42% | 1004.2 hPa | 0 mm | 0.45 m/s, 67° | - | - |
| 1777977050 | 16.11° C | 40% | 1004.3 hPa | 0 mm | 3.58 m/s, 45° | - | - |
| 1777976808 | 16.11° C | 41% | 1004.2 hPa | 0 mm | 0.89 m/s, 315° | - | - |
| 1777976749 | 16.11° C | 41% | 1004.2 hPa | 0 mm | 0.89 m/s, 315° | - | - |
| 1777976186 | 15° C | 46% | 1004.2 hPa | 0 mm | 0.89 m/s, 225° | - | - |
| 1777976144 | 15° C | 46% | 1004.2 hPa | 0 mm | 0.89 m/s, 225° | - | - |
| 1777975842 | 15° C | 47% | 1004.2 hPa | 0 mm | 0 m/s | - | - |
| 1777975572 | 14.44° C | 48% | 1004.4 hPa | 0 mm | 0 m/s | - | - |
| 1777975540 | 14.44° C | 48% | 1004.4 hPa | 0 mm | 0 m/s | - | - |
| 1777975237 | 13.89° C | 48% | 1004.3 hPa | 0 mm | 0.45 m/s, 225° | - | - |
* Rain since midnight (hover to see other rain measurements)
** Current wind speed in m/s (hover to see current wind gust speed)